Time,TemperatureF,DewpointF,PressureIn,WindDirection,WindDirectionDegrees,WindSpeedMPH,WindSpeedGustMPH,Humidity,HourlyPrecipIn,Conditions,Clouds,dailyrainin,SolarRadiationWatts/m^2,SoftwareType,DateUTC
2013-08-17 00:03:00,54.0,48.0,-100.00,NW,307,0.0,2.0,80,0.00,,,0.00,0.000000,,2013-08-17 04:03:00,
2013-08-17 00:44:00,53.0,47.0,-100.00,NW,326,0.0,2.0,81,0.00,,,0.00,0.000000,,2013-08-17 04:44:00,
2013-08-17 00:53:00,53.0,47.0,-100.00,NW,326,0.0,2.0,81,0.00,,,0.00,0.000000,,2013-08-17 04:53:00,
2013-08-17 01:03:00,53.0,47.0,-100.00,NW,326,0.0,2.0,81,0.00,,,0.00,0.000000,,2013-08-17 05:03:00,
2013-08-17 01:42:00,52.0,48.0,-100.00,NW,313,0.0,2.0,85,0.00,,,0.00,0.000000,,2013-08-17 05:42:00,
2013-08-17 01:52:00,52.0,48.0,-100.00,NW,313,0.0,2.0,85,0.00,,,0.00,0.000000,,2013-08-17 05:52:00,
2013-08-17 02:01:00,52.0,48.0,-100.00,NW,313,0.0,2.0,85,0.00,,,0.00,0.000000,,2013-08-17 06:01:00,
2013-08-17 02:42:00,52.0,48.0,-100.00,NW,308,1.0,2.0,86,0.00,,,0.00,0.000000,,2013-08-17 06:42:00,
2013-08-17 02:52:00,52.0,48.0,-100.00,NW,308,1.0,2.0,86,0.00,,,0.00,0.000000,,2013-08-17 06:52:00,
2013-08-17 03:01:00,52.0,48.0,-100.00,NW,308,1.0,2.0,86,0.00,,,0.00,0.000000,,2013-08-17 07:01:00,
2013-08-17 03:42:00,52.0,48.0,-100.00,NNW,327,1.0,2.0,86,0.00,,,0.00,0.000000,,2013-08-17 07:42:00,
2013-08-17 03:52:00,52.0,48.0,-100.00,NNW,327,1.0,2.0,86,0.00,,,0.00,0.000000,,2013-08-17 07:52:00,
2013-08-17 04:02:00,52.0,48.0,-100.00,NNW,327,1.0,2.0,86,0.00,,,0.00,0.000000,,2013-08-17 08:02:00,
2013-08-17 04:42:00,53.0,49.0,-100.00,NW,309,0.0,0.0,85,0.00,,,0.00,0.000000,,2013-08-17 08:42:00,
2013-08-17 04:52:00,53.0,49.0,-100.00,NW,309,0.0,0.0,85,0.00,,,0.00,0.000000,,2013-08-17 08:52:00,
2013-08-17 05:02:00,53.0,49.0,-100.00,NW,309,0.0,0.0,85,0.00,,,0.00,0.000000,,2013-08-17 09:02:00,
2013-08-17 05:43:00,52.0,49.0,-100.00,NW,318,2.0,3.0,90,0.00,,,0.00,0.000000,,2013-08-17 09:43:00,
2013-08-17 05:53:00,52.0,49.0,-100.00,NW,318,2.0,3.0,90,0.00,,,0.00,0.000000,,2013-08-17 09:53:00,
2013-08-17 06:03:00,52.0,49.0,-100.00,NW,318,2.0,3.0,90,0.00,,,0.00,0.000000,,2013-08-17 10:03:00,
2013-08-17 06:42:00,52.0,49.0,-100.00,NW,325,1.0,2.0,89,0.00,,,0.00,0.000000,,2013-08-17 10:42:00,
2013-08-17 06:53:00,52.0,49.0,-100.00,NW,325,1.0,2.0,89,0.00,,,0.00,0.000000,,2013-08-17 10:53:00,
2013-08-17 07:02:00,52.0,49.0,-100.00,NW,325,1.0,2.0,89,0.00,,,0.00,0.000000,,2013-08-17 11:02:00,
2013-08-17 07:42:00,52.0,50.0,-100.00,North,4,0.0,2.0,93,0.00,,,0.00,20.000000,,2013-08-17 11:42:00,
2013-08-17 07:52:00,52.0,50.0,-100.00,North,4,0.0,2.0,93,0.00,,,0.00,20.000000,,2013-08-17 11:52:00,
2013-08-17 08:01:00,52.0,50.0,-100.00,North,4,0.0,2.0,93,0.00,,,0.00,20.000000,,2013-08-17 12:01:00,
2013-08-17 08:42:00,57.0,55.0,-100.00,SE,126,0.0,0.0,93,0.00,,,0.00,92.000000,,2013-08-17 12:42:00,
2013-08-17 08:52:00,57.0,55.0,-100.00,SE,126,0.0,0.0,93,0.00,,,0.00,92.000000,,2013-08-17 12:52:00,
2013-08-17 09:02:00,57.0,55.0,-100.00,SE,126,0.0,0.0,93,0.00,,,0.00,92.000000,,2013-08-17 13:02:00,
2013-08-17 09:52:00,64.0,56.0,-100.00,South,172,1.0,3.0,74,0.00,,,0.00,236.000000,,2013-08-17 13:52:00,
2013-08-17 10:01:00,64.0,56.0,-100.00,South,172,1.0,3.0,74,0.00,,,0.00,236.000000,,2013-08-17 14:01:00,
2013-08-17 10:42:00,70.0,56.0,-100.00,SSE,149,3.0,6.0,61,0.00,,,0.00,369.000000,,2013-08-17 14:42:00,
2013-08-17 10:52:00,70.0,56.0,-100.00,SSE,149,3.0,6.0,61,0.00,,,0.00,369.000000,,2013-08-17 14:52:00,
2013-08-17 11:01:00,70.0,56.0,-100.00,SSE,149,3.0,6.0,61,0.00,,,0.00,369.000000,,2013-08-17 15:01:00,
2013-08-17 11:44:00,72.0,54.0,-100.00,East,81,4.0,8.0,54,0.00,,,0.00,579.000000,,2013-08-17 15:44:00,
2013-08-17 11:54:00,72.0,54.0,-100.00,East,81,4.0,8.0,54,0.00,,,0.00,579.000000,,2013-08-17 15:54:00,
2013-08-17 12:03:00,72.0,54.0,-100.00,East,81,4.0,8.0,54,0.00,,,0.00,579.000000,,2013-08-17 16:03:00,
2013-08-17 12:42:00,75.0,53.0,-100.00,SSE,161,3.0,7.0,47,0.00,,,0.00,720.000000,,2013-08-17 16:42:00,
2013-08-17 12:53:00,75.0,53.0,-100.00,SSE,161,3.0,7.0,47,0.00,,,0.00,720.000000,,2013-08-17 16:53:00,
2013-08-17 13:02:00,75.0,53.0,-100.00,SSE,161,3.0,7.0,47,0.00,,,0.00,720.000000,,2013-08-17 17:02:00,
2013-08-17 13:42:00,74.0,51.0,-100.00,South,169,4.0,9.0,45,0.00,,,0.00,713.000000,,2013-08-17 17:42:00,
2013-08-17 13:52:00,74.0,51.0,-100.00,South,169,4.0,9.0,45,0.00,,,0.00,713.000000,,2013-08-17 17:52:00,
2013-08-17 14:02:00,74.0,51.0,-100.00,South,169,4.0,9.0,45,0.00,,,0.00,713.000000,,2013-08-17 18:02:00,
2013-08-17 14:42:00,73.0,50.0,-100.00,ESE,116,3.0,7.0,45,0.00,,,0.00,479.000000,,2013-08-17 18:42:00,
2013-08-17 14:52:00,73.0,50.0,-100.00,ESE,116,3.0,7.0,45,0.00,,,0.00,479.000000,,2013-08-17 18:52:00,
2013-08-17 15:02:00,73.0,50.0,-100.00,ESE,116,3.0,7.0,45,0.00,,,0.00,479.000000,,2013-08-17 19:02:00,
2013-08-17 15:42:00,76.0,56.0,-100.00,East,94,3.0,7.0,50,0.00,,,0.00,568.000000,,2013-08-17 19:42:00,
2013-08-17 15:52:00,76.0,56.0,-100.00,East,94,3.0,7.0,50,0.00,,,0.00,568.000000,,2013-08-17 19:52:00,
2013-08-17 16:02:00,76.0,56.0,-100.00,East,94,3.0,7.0,50,0.00,,,0.00,568.000000,,2013-08-17 20:02:00,
2013-08-17 16:42:00,75.0,51.0,-100.00,SSE,159,3.0,7.0,43,0.00,,,0.00,529.000000,,2013-08-17 20:42:00,
2013-08-17 16:52:00,75.0,51.0,-100.00,SSE,159,3.0,7.0,43,0.00,,,0.00,529.000000,,2013-08-17 20:52:00,
2013-08-17 17:01:00,75.0,51.0,-100.00,SSE,159,3.0,7.0,43,0.00,,,0.00,529.000000,,2013-08-17 21:01:00,
2013-08-17 17:42:00,74.0,51.0,-100.00,SE,127,2.0,6.0,45,0.00,,,0.00,403.000000,,2013-08-17 21:42:00,
2013-08-17 17:54:00,74.0,51.0,-100.00,SE,127,2.0,6.0,45,0.00,,,0.00,403.000000,,2013-08-17 21:54:00,
2013-08-17 18:03:00,74.0,51.0,-100.00,SE,127,2.0,6.0,45,0.00,,,0.00,403.000000,,2013-08-17 22:03:00,
2013-08-17 18:42:00,73.0,53.0,-100.00,ESE,103,2.0,4.0,49,0.00,,,0.00,253.000000,,2013-08-17 22:42:00,
2013-08-17 18:52:00,73.0,53.0,-100.00,ESE,103,2.0,4.0,49,0.00,,,0.00,253.000000,,2013-08-17 22:52:00,
2013-08-17 19:02:00,73.0,53.0,-100.00,ESE,103,2.0,4.0,49,0.00,,,0.00,253.000000,,2013-08-17 23:02:00,
2013-08-17 19:42:00,67.0,57.0,-100.00,North,6,0.0,2.0,71,0.00,,,0.00,98.000000,,2013-08-17 23:42:00,
2013-08-17 19:52:00,67.0,57.0,-100.00,North,6,0.0,2.0,71,0.00,,,0.00,98.000000,,2013-08-17 23:52:00,
2013-08-17 20:01:00,67.0,57.0,-100.00,North,6,0.0,2.0,71,0.00,,,0.00,98.000000,,2013-08-18 00:01:00,
2013-08-17 20:42:00,62.0,54.0,-100.00,NNW,329,0.0,0.0,75,0.00,,,0.00,21.000000,,2013-08-18 00:42:00,
2013-08-17 20:52:00,62.0,54.0,-100.00,NNW,329,0.0,0.0,75,0.00,,,0.00,21.000000,,2013-08-18 00:52:00,
2013-08-17 21:01:00,62.0,54.0,-100.00,NNW,329,0.0,0.0,75,0.00,,,0.00,21.000000,,2013-08-18 01:01:00,
2013-08-17 21:42:00,60.0,55.0,-100.00,North,8,0.0,0.0,83,0.00,,,0.00,0.000000,,2013-08-18 01:42:00,
2013-08-17 21:52:00,60.0,55.0,-100.00,North,8,0.0,0.0,83,0.00,,,0.00,0.000000,,2013-08-18 01:52:00,
2013-08-17 22:02:00,60.0,55.0,-100.00,North,8,0.0,0.0,83,0.00,,,0.00,0.000000,,2013-08-18 02:02:00,
2013-08-17 22:42:00,59.0,54.0,-100.00,NW,315,0.0,2.0,85,0.00,,,0.00,0.000000,,2013-08-18 02:42:00,
2013-08-17 22:52:00,59.0,54.0,-100.00,NW,315,0.0,2.0,85,0.00,,,0.00,0.000000,,2013-08-18 02:52:00,
2013-08-17 23:02:00,59.0,54.0,-100.00,NW,315,0.0,2.0,85,0.00,,,0.00,0.000000,,2013-08-18 03:02:00,
2013-08-17 23:43:00,58.0,54.0,-100.00,NW,319,0.0,2.0,87,0.00,,,0.00,0.000000,,2013-08-18 03:43:00,
2013-08-17 23:53:00,58.0,54.0,-100.00,NW,319,0.0,2.0,87,0.00,,,0.00,0.000000,,2013-08-18 03:53:00,